Regional Weather Roundup
Issued by NWS Charleston, WV

Home | Current Version | Previous Version | Text Only | Print | Product List | Glossary Off
Versions: 1 2 3 4 5 6 7 8 9 10 11 12 13 14 15 16 17 18 19 20 21 22 23 24 25 26 27 28 29 30 31 32 33 34 35 36 37 38 39 40 41 42 43 44 45 46 47 48 49 50

000
ASUS41 KRLX 260110
RWRRLX
West Virginia Regional Weather Roundup
National Weather Service Charleston WV
900 PM EDT MON SEP 25 2017

Note: "fair" indicates few or no clouds below 12,000 feet with no
significant weather and/or obstructions to visibility.

WVZ003-260200-
Northern Panhandle of West Virginia

CITY           SKY/WX    TMP DP  RH WIND       PRES   REMARKS
WHEELING       CLEAR     74  62  66 SE5       30.04R
$$

WVZ009-260200-
Northwest West Virginia

CITY           SKY/WX    TMP DP  RH WIND       PRES   REMARKS
PARKERSBURG    CLEAR     70  66  87 CALM      30.04R
$$

WVZ006-260200-
Western West Virginia

CITY           SKY/WX    TMP DP  RH WIND       PRES   REMARKS
HUNTINGTON     CLEAR     72  66  81 CALM      30.00R
$$

WVZ015-260200-
West Central West Virginia

CITY           SKY/WX    TMP DP  RH WIND       PRES   REMARKS
CHARLESTON     PTCLDY    72  64  76 CALM      30.01R
$$

WVZ022-031-260200-
North Central West Virginia

CITY           SKY/WX    TMP DP  RH WIND       PRES   REMARKS
CLARKSBURG     PTCLDY    73  64  73 CALM      30.03S
MORGANTOWN     PTCLDY    75  67  76 CALM      30.05R
$$

WVZ025-035-042-045-260200-
Southern West Virginia

CITY           SKY/WX    TMP DP  RH WIND       PRES   REMARKS
BECKLEY        CLEAR     66  58  75 E3        30.09S
LOGAN            N/A     75  63  64 CALM      30.04S
BLUEFIELD      CLEAR     67  57  70 CALM      30.11S
LEWISBURG      PTCLDY    66  61  82 CALM      30.09R
$$

WVZ047-260200-
Northern Mountains of West Virginia

CITY           SKY/WX    TMP DP  RH WIND       PRES   REMARKS
ELKINS         PTCLDY    64  61  90 CALM      30.09R
$$

WVZ052-260200-
Eastern Panhandle of West Virginia

CITY           SKY/WX    TMP DP  RH WIND       PRES   REMARKS
MARTINSBURG    PTCLDY    74  68  81 CALM      30.01R
PETERSBURG     MOCLDY    73  69  86 W5        30.03S
$$



USA.gov is the U.S. government's official web portal to all federal, state and local government web resources and services.